NOAA 16 DEB, 41291

Orbit data source: Space-Track

NOAA 16 DEB, 41291 is space debris in SSO originally from a launch on Thu, 21 Sep 2000 UTC launched from the Air Force Western Test Range (AFWTR). Debris objects in space refer to the collection of defunct objects orbiting the Earth. Examples of debris include non-operational satellites, rocket bodies, and fragments generated from explosions, collisions, or faulty payload assembly.

Loading next visibility...
Identifier
41291, 2000-055GT
Orbit
SSO
Country
Flag of USUS
Related business
Manufacturer
Unknown
Mission
Spacecraft
Bus & Motor
Unknown
Mass
Unknown
Launch date (UTC)
2000-09-21 (25 years ago)
Launch vehicle
Unknown
Launch site
Air Force Western Test Range (AFWTR)
Object type
Payload
Rocket body
Debris
Shape & HBR
Unknown shape, 0.1 m
Radar Cross Section
Small (<0.1 m²)

Expand to show TLE details & history
Last TLE update: 23 hours ago

TLE from 23 hours ago
0 NOAA 16 DEB
1 41291U 00055GT  25291.58604039  .00015527  00000-0  37213-2 0  9999
2 41291  98.9953 161.6858 0038681  55.5624 304.9216 14.53117301515552
Epoch: 2025-10-18T14:03Z
TLE epoch observation values (Epoch: 2025-10-18T14:03:53.889Z)
Latitude
-0.00002°
Longitude
-76.60367°
Altitude
702.796 km
Speed
7.513 km/s
True Right ascension
10h 46m 44s
True Declination
0° 00' 00"
Sunlit
Object was in daylight at epoch
Visualization orbit readout
Latitude
Unknown
Longitude
Unknown
Altitude
Unknown
Speed
Unknown
Apparent Right ascension
Unknown
Apparent Declination
Unknown
Sunlit
N/A
Visualization observer readout
Local Sidereal Time
07:54:17
Azimuth
Unknown
Elevation
Unknown
Doppler factor
Unknown
Orbital elements
Apogee altitude
740.042 km
Perigee altitude
685.186 km
Semi-major axis
7,090.751 km
Eccentricity
0.00387
Inclination
98.9953°
RAAN
161.6858°
Arg. of periapsis
55.5624°
True anomaly
304.55716°
Mean anomaly
304.9216°
Eccentric anomaly
304.73948°
Mean motion
3.635 °/min
Orbital period
99.04 mins
BSTAR
0.0037213
Loading maneuver chart data...
Computing Atmospheric mass density...

Documentation

Showing up to 5 results
|